Tracking 32932 objects as of 14-Jan-2026
HD Live streaming from Space Station
objects crossing your sky now

FR 1

Track FR 1 now!
10-day predictions
FR 1 is classified as:


NORAD ID: 1814
Int'l Code: 1965-101A
Perigee: 660.3 km
Apogee: 667.4 km
Inclination: 75.9 °
Period: 97.9 minutes
Semi major axis: 7034 km
RCS: 0.5793 m2 (medium)
Launch date: December 6, 1965
Source: France (FR)
Launch site: AIR FORCE WESTERN TEST RANGE (AFWTR)
Your satellite tracking list
Your tracking list is empty




NASA's NSSDC Master Catalog

Two Line Element Set (TLE):
1 01814U 65101A   26013.75709866  .00000634  00000-0  10523-3 0  9994
2 01814  75.8648 257.4610 0005007 133.8433 226.3164 14.71367303 33382
Source of the keplerian elements: AFSPC